Lid_Strength_Index
4 4 4 4 4 4 3 4 4 4 3 3 3 3 3 4 5 8 10 8 7 4 6 9 10 11 12 13 14 15 20 22 20 20 18 15 15 14 13 15 13 12 13 11 10
4 4 4 4 4 4 4 4 4 4 3 4 4 4 4 4 9 11 6 5 4 4 10 11 12 12 14 14 14 16 19 19 17 17 17 15 15 15 15 15 15 14 11 10 10
4 4 4 4 4 4 4 4 4 4 4 5 4 4 4 6 13 12 5 4 4 6 9 9 11 12 15 14 15 16 18 16 15 14 14 14 15 14 15 16 14 14 14 12 12
4 4 4 4 4 4 4 4 5 5 5 4 4 4 5 9 19 11 5 4 5 8 10 11 12 15 16 17 14 18 15 14 13 12 13 14 13 14 14 15 13 13 13 13 14
4 4 4 4 4 4 4 4 4 5 5 5 4 4 9 15 14 9 6 7 9 9 11 12 14 15 17 16 15 16 15 13 12 12 13 12 14 14 15 14 14 13 13 14 13
4 4 4 4 4 4 4 4 4 5 5 5 4 5 13 17 10 10 10 9 10 11 12 12 14 13 15 15 15 14 14 14 13 13 13 14 14 14 14 14 14 14 15 14 13
4 4 4 4 4 4 4 4 4 5 5 5 4 9 15 15 11 10 9 10 10 10 12 11 11 13 13 15 13 13 15 14 14 14 14 13 16 15 14 12 13 13 12 12 13
4 4 4 5 4 4 4 4 4 5 6 6 5 12 16 11 11 10 10 10 9 9 10 10 10 11 13 12 14 16 16 20 16 14 13 14 18 14 13 13 14 14 13 12 11
3 3 4 4 4 4 4 5 5 6 6 6 12 14 18 9 12 11 10 11 11 10 10 8 10 13 14 17 19 18 21 20 19 15 15 14 16 13 12 13 15 14 13 13 12
3 3 4 4 5 4 6 6 6 8 9 10 13 17 15 15 12 11 10 10 12 12 12 12 15 16 17 18 25 21 21 20 20 17 15 15 15 14 12 14 14 14 14 14 13
3 3 4 4 5 5 10 13 15 14 14 18 16 17 15 13 11 12 10 12 12 14 17 15 17 19 18 16 16 18 19 21 19 15 16 15 16 15 14 14 15 14 15 14 14
3 4 4 4 5 7 12 14 14 14 17 15 15 15 13 13 15 13 10 14 15 17 16 17 18 16 15 15 16 17 19 21 18 15 15 16 17 17 14 14 15 15 15 15 14
4 4 4 5 6 11 14 14 11 12 17 16 15 15 15 14 15 14 12 14 16 17 17 18 16 14 15 16 17 18 20 20 20 16 15 15 19 18 14 13 14 14 14 15 15
4 4 4 5 11 12 15 12 11 11 20 19 17 15 14 14 16 12 12 14 15 17 17 17 14 15 16 17 18 25 18 19 19 20 22 18 24 17 16 15 15 16 16 16 15
3 4 5 7 11 14 13 11 11 13 24 18 18 13 14 16 16 14 12 13 16 16 17 17 17 16 21 17 17 21 18 19 19 20 22 17 22 20 17 18 18 18 17 17 16
3 4 6 9 10 12 11 11 12 18 22 19 17 18 18 17 16 14 14 13 14 16 16 16 15 16 17 16 17 18 21 20 20 20 25 21 20 21 23 22 20 19 19 18 16
3 4 7 9 12 10 10 13 18 21 18 20 20 18 18 18 17 16 17 18 19 23 22 18 17 16 16 19 17 22 25 31 29 29 27 19 20 21 22 20 22 22 21 18 17
3 5 7 9 10 10 11 15 22 19 21 19 19 19 19 19 18 17 18 19 18 20 25 26 23 19 16 21 24 21 26 30 33 29 26 19 23 20 21 21 24 21 21 18 18
4 8 9 10 9 10 13 20 20 19 18 19 19 21 21 19 18 18 19 19 18 20 24 29 24 16 17 17 19 21 24 21 29 27 28 24 19 20 17 18 22 24 19 20 19
8 9 9 9 9 11 16 18 19 18 18 18 19 20 23 22 20 20 19 18 17 17 18 23 25 17 17 17 18 19 19 27 26 33 33 25 24 23 22 24 22 24 21 20 19
8 12 10 10 10 13 19 18 18 17 17 18 19 20 21 22 20 21 19 17 17 18 17 21 22 20 18 26 26 23 23 22 24 25 31 30 27 24 26 25 25 23 20 20 19
10 13 10 11 15 16 17 17 17 18 16 18 18 19 21 21 22 19 18 18 16 16 19 18 24 26 25 24 20 21 27 25 29 28 26 26 27 23 26 28 23 22 20 19 18
13 14 10 11 16 17 17 18 17 18 18 18 18 18 22 22 23 21 18 17 16 17 19 18 21 26 22 21 19 25 22 22 25 25 28 29 26 25 24 23 23 23 23 22 19
11 14 14 13 14 16 18 17 18 17 17 17 18 18 23 24 21 23 19 16 15 16 14 16 21 24 24 24 29 27 25 23 24 32 30 28 26 24 26 28 27 25 23 22 22
10 13 14 17 16 16 15 17 18 18 18 17 19 19 21 24 25 23 19 18 16 14 16 18 25 24 27 31 30 27 24 26 27 30 28 28 29 24 27 30 32 28 25 24 24
12 13 14 15 15 16 15 16 18 18 19 19 19 19 21 22 20 21 19 18 18 17 18 19 24 24 24 29 31 25 26 27 27 31 30 34 30 29 30 28 29 29 28 28 26
9 9 12 14 15 15 15 15 17 17 16 17 18 19 21 20 19 18 17 17 17 20 20 23 23 26 26 27 24 26 26 29 30 32 27 28 25 34 29 30 31 29 28 28 28